Temp_Advection
nan nan nan nan nan nan nan nan nan nan nan nan nan nan nan nan nan nan nan nan nan nan nan nan nan nan nan nan nan nan nan nan nan nan nan nan nan nan nan nan nan nan nan nan nan nan nan nan nan nan nan nan
nan 1 0 -0 -0 -0 -0 -0 -1 -0 -0 -0 -0 -0 -0 -0 -0 -0 -1 -0 -0 0 0 -0 0 0 0 -0 0 0 0 0 0 0 0 0 0 0 0 0 0 0 -0 0 0 0 0 0 0 0 -0 nan
nan 0 -0 -0 -0 -0 -0 -1 -2 -1 -1 -0 -0 -1 -1 -0 -0 -0 -1 -0 -0 -0 0 -0 -0 0 0 -0 -0 0 0 0 0 0 0 0 0 0 0 -0 -0 -0 -0 0 0 0 0 0 0 0 -0 nan
nan 0 -0 -0 0 -0 -0 -1 -1 -1 -0 -0 -0 -0 -0 -0 -0 -0 -0 -0 -0 -0 -0 0 0 0 0 0 0 0 0 0 0 0 0 0 0 -0 -0 -1 -1 -1 -0 0 0 0 0 0 0 0 0 nan
nan 0 -0 -0 0 -0 -0 -0 0 -0 -0 0 0 -0 -0 -0 -0 -0 -0 -0 -0 -0 -0 -0 0 0 0 0 0 0 0 0 0 0 0 -0 -0 -0 -1 -1 -1 -1 -1 -0 0 0 0 0 0 0 0 nan
nan 0 -0 -0 0 0 0 0 1 0 0 0 0 -0 -0 -0 -0 -0 -0 -0 -0 -0 -0 -0 -0 0 0 0 0 0 0 0 -0 -0 -0 -0 -0 -0 -0 -0 -1 -1 -1 -0 0 0 0 0 0 0 0 nan
nan 0 -0 -0 0 0 0 0 0 0 0 0 0 -0 -0 -0 -0 -0 -0 -0 -0 -0 -0 -1 -1 -0 -0 -0 -0 -0 0 0 -1 -1 -1 -0 0 1 1 1 -0 -1 -1 -0 0 0 0 0 0 0 0 nan
nan 0 -0 0 1 0 0 0 0 0 0 0 0 -0 -0 -0 -0 -0 -0 0 0 -0 -0 -1 -1 -1 -0 -1 -1 -1 -1 -1 -1 -1 -1 -0 0 1 1 1 0 -0 -0 -1 -0 0 0 0 0 0 0 nan
nan 0 -0 0 0 0 0 0 0 0 0 0 0 0 0 0 -0 0 0 0 0 0 -0 -0 -1 -1 -0 -0 -0 -1 -1 -1 -0 -0 -0 -0 -0 0 0 0 -0 -0 -0 -0 -0 -0 0 0 0 0 0 nan
nan -0 -0 0 0 -0 0 0 0 0 0 0 0 0 0 0 0 -0 -0 0 0 -0 -0 -0 -0 -0 -0 -0 -0 -0 -0 0 0 0 0 -0 -0 0 0 0 0 -0 -0 -0 -0 -0 -0 -0 0 0 0 nan
nan -1 0 0 0 0 0 0 0 0 0 0 0 0 0 0 0 0 -0 0 0 -0 -0 0 0 -0 -0 0 0 0 0 0 0 0 0 0 -0 0 0 0 0 0 0 -0 -0 -0 -0 -0 -0 -0 -0 nan
nan -1 0 0 0 0 0 0 0 0 0 0 0 0 0 0 0 0 -0 -0 0 0 -0 -0 0 0 0 0 0 0 0 0 0 0 0 0 -0 -0 0 0 0 0 0 0 -0 -0 -0 -0 -0 -0 -0 nan
nan 0 1 0 0 0 0 0 0 0 0 0 0 0 0 0 0 0 0 -0 0 0 0 0 0 0 0 0 0 0 0 0 0 0 0 0 -0 -0 -0 0 0 0 0 0 -0 -0 -0 -0 -0 -0 -0 nan
nan 1 1 0 0 0 0 0 0 0 0 0 0 0 0 0 0 0 0 0 0 0 0 0 0 -0 -0 -0 -0 0 0 0 0 0 0 0 -0 -0 -0 -0 0 0 0 0 0 0 0 -0 -0 -0 -0 nan
nan 1 0 0 0 0 0 0 0 0 0 0 0 0 0 0 0 0 0 0 0 0 0 0 0 -0 -0 -0 -0 0 0 0 0 0 0 0 -0 -0 -0 -0 0 0 0 0 0 0 0 0 0 -0 -0 nan
nan 0 0 0 -0 -0 0 0 0 0 0 0 -0 -0 -0 -0 0 0 0 0 0 0 0 0 0 0 -0 -0 -0 -0 0 0 0 0 0 0 0 0 0 0 0 0 0 0 0 0 0 0 -0 -0 -0 nan
nan 0 -0 -0 -0 -0 0 0 0 0 0 0 -0 -0 -0 -0 -0 0 0 0 0 0 0 0 0 0 0 0 0 0 0 0 0 0 0 0 0 0 0 0 0 0 0 0 0 -0 -0 -0 -0 -0 0 nan
nan 0 -0 -0 -0 0 0 0 0 0 0 0 0 0 -0 -0 -0 -0 0 0 0 0 0 0 0 0 0 0 0 0 0 0 0 0 0 0 0 0 0 0 0 0 -0 0 0 -0 -0 -0 0 0 0 nan
nan 0 -0 -0 -0 0 0 0 0 0 0 0 0 0 -0 -0 -0 -0 0 0 0 0 0 0 0 0 0 0 0 0 -0 -0 -0 0 0 0 0 0 0 0 0 0 0 0 -0 0 0 0 0 0 0 nan
nan -0 -1 -0 0 0 0 0 0 0 0 0 0 0 0 -0 -0 -0 -0 0 0 0 0 0 0 0 0 0 0 -0 0 0 0 0 0 0 0 0 0 0 0 0 0 0 0 0 0 0 0 0 0 nan
nan -0 -0 0 0 0 0 0 0 0 0 0 0 0 0 0 -0 -0 -0 0 0 0 0 0 0 0 0 0 0 0 0 0 -0 -0 0 0 0 0 0 0 0 0 0 0 0 0 0 0 0 0 0 nan
nan -0 0 0 0 0 0 0 0 0 0 0 0 0 0 0 -0 -0 -0 0 0 0 0 0 0 0 0 0 0 0 0 -0 -0 -0 0 0 0 0 0 0 0 0 0 0 0 0 0 0 0 0 0 nan
nan 0 0 0 0 0 0 0 0 0 0 0 0 0 0 0 0 -0 -0 -0 -0 0 0 0 0 0 0 0 0 0 -0 -0 -0 -0 0 0 0 0 0 0 0 0 0 0 0 0 0 0 0 0 0 nan
nan -0 -0 0 -0 -0 0 0 0 0 0 -0 -0 0 0 0 0 -0 -0 -0 -0 -0 0 0 0 0 0 0 0 0 -0 0 0 0 0 0 0 0 0 0 0 0 0 0 0 0 0 0 0 0 0 nan
nan -0 -0 -0 -0 -0 0 0 0 0 0 0 0 0 0 0 0 0 -0 -1 -0 -0 0 0 0 0 0 0 0 0 0 0 0 1 1 0 0 0 0 0 0 0 0 1 0 0 0 0 0 0 0 nan
nan 0 0 0 -0 0 0 0 1 0 0 0 0 0 0 0 0 0 0 -0 -0 -0 0 0 0 0 0 0 1 0 0 0 0 0 0 0 0 0 0 0 -0 0 0 0 0 1 1 0 0 0 0 nan
nan 1 1 0 0 0 0 1 1 1 1 0 0 1 1 0 0 0 1 0 -0 -0 0 0 0 0 0 1 1 0 0 0 0 0 0 0 0 0 0 -0 -1 -0 0 0 1 1 0 0 0 -0 -1 nan
nan 1 0 0 0 1 1 1 1 1 0 0 1 1 1 1 0 0 0 0 -0 -0 0 0 -0 0 0 0 0 0 0 0 0 -0 -0 0 0 0 -0 -1 -0 0 0 0 0 -0 -0 -0 -0 -1 -1 nan
nan 1 0 0 0 0 0 0 0 -0 -0 0 0 1 1 1 1 0 0 -0 -0 -0 -0 0 0 0 0 0 0 0 0 0 0 0 0 1 1 0 -0 -0 0 0 -0 -0 -0 -1 -1 -1 -1 -1 -0 nan
nan 0 0 0 0 0 -0 -1 -1 -0 0 0 0 1 1 1 1 0 -0 -0 -0 -0 0 0 0 -0 -0 0 1 1 0 0 0 0 1 1 1 0 1 1 0 -0 0 0 -0 -0 -1 -1 -1 -0 0 nan
nan nan nan nan nan nan nan nan nan nan nan nan nan nan nan nan nan nan nan nan nan nan nan nan nan nan nan nan nan nan nan nan nan nan nan nan nan nan nan nan nan nan nan nan nan nan nan nan nan nan nan nan
Wind_Speed
25 24 23 22 21 21 20 17 15 14 13 12 10 8 7 7 8 8 9 11 9 10 11 11 12 13 13 11 12 14 15 16 16 17 17 17 16 16 16 17 17 18 22 24 22 20 19 19 17 19 19 16
25 25 24 23 21 19 17 15 15 14 13 11 9 8 7 7 7 8 10 11 10 10 11 11 12 13 12 11 13 14 16 17 16 17 17 16 16 16 16 17 18 20 23 22 20 20 19 19 18 19 18 15
25 26 26 23 20 17 15 14 15 14 12 9 8 7 7 6 6 7 9 10 10 10 10 10 12 13 12 11 13 15 16 16 16 16 16 16 15 16 16 17 19 22 23 21 20 19 18 19 18 18 17 15
28 28 26 23 20 16 13 13 13 12 10 8 6 6 6 5 5 7 8 8 9 10 10 10 11 13 12 11 13 15 17 16 15 15 15 15 15 16 17 18 20 23 23 22 20 19 18 18 17 17 17 17
30 28 25 22 19 13 10 11 12 11 10 8 6 5 4 4 4 5 7 7 7 9 10 11 12 13 13 11 13 15 16 15 14 14 15 15 15 16 16 17 21 23 23 22 20 19 18 17 16 16 18 17
31 29 25 22 18 11 8 10 11 11 10 8 6 5 4 3 3 4 6 6 6 7 10 13 13 13 13 12 13 15 15 15 15 15 15 15 14 13 13 16 21 22 22 21 19 17 17 16 16 15 16 17
31 28 25 21 16 9 8 10 11 11 10 8 6 4 3 3 2 3 4 5 4 6 9 13 15 14 14 13 13 15 16 15 15 16 16 15 14 14 15 18 20 21 21 20 18 17 16 15 15 15 15 15
30 27 23 19 14 9 9 11 12 11 9 8 6 4 3 2 2 2 3 4 4 5 7 11 15 15 14 13 13 15 16 14 14 15 15 16 16 17 19 20 20 20 20 20 19 18 16 15 14 15 15 14
30 27 21 17 13 10 10 11 12 11 9 8 6 4 3 2 2 2 3 4 5 6 5 8 12 14 13 11 11 12 12 11 11 13 15 17 18 19 21 21 20 20 20 19 19 18 17 16 15 15 14 13
29 26 21 17 13 10 10 11 12 10 9 8 6 4 3 2 3 3 4 5 6 6 6 7 9 12 11 10 10 10 10 11 12 13 14 16 19 20 21 20 19 19 19 19 18 18 17 16 16 15 14 13
28 25 21 17 12 10 9 9 10 9 9 8 7 5 3 3 3 3 5 5 6 6 7 7 8 9 10 9 9 10 11 12 13 14 14 15 18 19 20 19 18 17 17 18 17 17 17 16 16 15 14 13
27 24 21 18 13 10 9 7 7 7 8 8 8 6 5 4 4 4 5 6 7 7 7 8 8 9 10 10 10 11 12 12 12 13 13 14 17 18 19 19 18 18 17 17 17 17 16 16 16 15 14 14
27 24 20 19 15 12 10 7 6 7 6 7 8 8 6 5 5 5 6 7 8 8 8 8 9 9 10 11 11 12 13 13 13 13 14 14 16 17 18 18 18 17 17 17 16 16 16 16 15 15 14 13
25 22 20 20 19 16 12 9 7 7 6 6 7 8 8 7 6 6 7 7 8 9 8 8 9 10 10 11 12 13 13 14 14 13 14 14 15 15 16 17 17 17 16 16 16 16 16 15 15 14 13 13
24 22 20 20 21 19 15 11 9 8 8 6 6 8 9 9 8 7 7 8 9 10 9 9 9 10 11 12 13 14 14 14 14 14 14 14 14 15 15 15 16 16 16 16 16 16 15 15 14 14 13 13
24 22 21 19 20 20 17 13 11 11 10 8 7 8 10 11 9 8 8 9 9 10 10 10 10 11 12 13 14 14 15 15 15 15 15 14 14 14 14 15 15 15 15 15 15 15 15 15 14 14 13 12
25 23 21 19 17 18 17 14 15 14 12 11 8 8 11 12 11 10 9 9 10 11 11 11 11 12 12 13 14 15 16 16 16 16 16 15 15 14 14 15 15 15 15 15 15 16 16 15 14 13 12 11
26 25 22 20 18 17 16 16 18 16 13 13 12 10 11 13 13 12 10 10 11 11 12 12 13 13 13 14 15 16 17 17 18 17 17 16 16 15 15 15 15 15 15 16 16 16 15 15 14 13 12 11
27 26 23 21 20 19 17 17 19 17 14 14 15 13 11 13 15 13 12 11 11 12 13 13 14 14 14 15 15 17 18 18 19 18 18 17 16 16 16 16 16 16 16 16 16 16 15 14 13 13 12 11
28 27 24 23 24 22 18 17 18 18 18 17 17 16 13 14 16 15 13 12 12 13 14 14 15 15 15 16 17 17 18 19 19 19 19 18 17 17 16 17 17 17 16 17 17 16 16 15 14 13 12 12
29 27 25 25 27 27 22 18 18 19 20 19 18 18 16 14 16 17 15 14 13 14 15 15 15 16 16 17 18 18 18 19 20 20 20 19 18 18 17 17 17 17 17 17 17 17 16 15 15 14 13 12
30 28 27 27 28 29 28 23 20 20 20 20 19 20 19 15 16 18 18 16 15 15 15 17 17 17 17 18 19 19 20 20 21 21 20 20 20 19 19 18 18 18 18 18 18 18 17 16 15 15 14 14
32 29 29 30 29 30 30 28 25 23 22 20 20 21 20 18 16 18 19 18 16 16 16 17 18 18 18 19 20 20 21 21 22 21 22 22 22 21 20 20 19 19 18 18 18 18 18 17 16 16 15 14
37 33 31 31 33 32 32 31 29 27 24 20 20 22 22 20 19 18 20 20 19 18 18 18 19 19 19 20 21 22 22 22 22 22 22 23 23 22 22 21 21 20 19 19 19 19 18 18 17 17 16 15
40 37 34 32 32 33 33 33 32 29 26 22 22 24 24 23 21 21 21 22 22 20 20 20 20 20 20 21 22 23 23 23 23 23 23 23 23 24 23 23 22 21 20 20 20 21 20 19 19 18 18 17
42 40 37 33 30 30 32 32 33 32 29 24 22 24 26 25 24 24 23 24 25 24 22 22 22 21 22 22 22 23 24 24 24 24 24 25 25 25 25 24 24 23 23 23 23 22 20 19 20 20 20 19
44 43 40 37 33 31 32 32 33 33 31 27 25 25 27 27 26 27 26 25 26 26 25 24 23 22 23 23 23 24 25 25 26 26 26 26 26 26 26 27 26 25 25 25 23 20 17 16 17 19 22 24
44 44 42 40 37 35 34 33 33 33 32 30 27 27 28 29 28 29 28 27 27 28 28 26 24 24 24 24 24 25 26 26 27 27 28 27 27 28 29 29 28 27 27 27 25 20 16 13 13 14 17 21
41 41 41 41 40 39 37 36 35 34 33 32 29 29 29 30 30 30 29 28 28 29 30 29 27 26 25 25 25 26 26 27 27 28 28 28 29 30 30 29 28 28 28 29 28 24 19 14 13 13 12 13
38 39 39 40 41 41 40 39 37 34 33 32 30 29 28 28 29 30 29 28 28 28 29 30 29 28 26 26 27 27 27 28 28 29 29 29 30 31 30 30 30 29 29 30 30 29 27 21 15 13 14 13
35 36 37 38 40 41 41 40 38 35 34 33 31 30 28 28 28 29 29 28 27 27 28 29 30 29 28 27 28 28 29 29 29 30 30 30 31 30 31 32 33 32 30 29 31 31 32 30 24 18 16 15
Wind_Direction
182 181 179 183 193 192 189 181 169 161 153 147 146 146 137 131 120 115 122 129 132 134 133 130 130 130 134 134 125 126 129 129 129 130 131 134 136 140 139 137 135 134 142 148 152 152 153 153 153 152 139 116
186 185 185 191 196 195 195 184 168 159 153 151 147 140 136 132 121 118 126 132 135 138 137 134 134 130 134 137 129 129 131 132 134 136 138 140 141 143 140 134 132 138 145 149 151 152 153 154 153 153 141 115
187 190 193 199 202 202 210 197 170 158 156 152 143 140 139 137 124 121 128 135 140 143 140 138 138 133 136 139 131 130 134 138 139 140 142 141 136 135 135 134 138 143 147 149 151 152 153 154 153 153 145 124
186 194 199 201 204 209 220 206 172 154 151 143 136 136 136 139 126 122 132 143 143 141 142 143 142 138 142 142 133 132 138 143 140 137 136 135 132 132 137 142 147 148 148 152 154 155 155 155 154 152 149 138
188 198 204 204 205 212 226 206 167 147 147 142 137 133 132 140 132 127 142 160 153 145 149 152 149 143 147 145 134 134 140 143 139 134 135 138 139 140 146 151 150 150 151 155 157 159 159 158 157 154 153 148
193 201 206 208 205 209 218 197 165 152 152 145 141 136 139 153 151 149 164 178 164 153 156 157 155 149 152 150 139 138 139 141 141 141 145 150 147 142 144 149 150 151 154 157 161 162 162 162 162 160 158 156
196 201 208 210 202 203 203 187 169 162 159 150 148 141 144 166 175 170 181 193 175 161 158 159 161 157 157 154 145 143 143 151 156 154 154 153 145 137 139 147 152 154 156 159 163 164 166 167 166 166 163 161
199 204 212 208 195 193 188 179 172 168 166 160 155 148 154 171 179 181 189 200 192 175 161 161 165 167 168 163 154 150 154 165 165 156 151 145 141 140 144 150 155 156 157 160 164 167 170 172 171 171 170 169
203 208 212 199 184 181 176 174 175 174 173 170 165 159 164 181 183 185 191 197 196 186 170 164 168 174 178 174 164 155 158 161 152 150 149 143 143 145 149 153 156 157 160 162 165 170 172 174 175 176 179 180
207 211 206 189 179 176 170 171 174 178 180 178 177 174 174 198 206 191 190 200 200 193 185 177 176 178 178 174 167 153 150 150 146 152 153 147 146 148 151 154 157 158 160 163 166 170 173 176 179 182 185 186
209 211 202 185 181 179 173 170 170 177 183 186 187 186 192 206 222 205 191 201 202 198 194 191 189 184 177 172 165 154 150 153 154 156 156 152 150 150 152 154 157 159 160 163 166 170 173 177 180 184 185 184
209 212 201 186 186 188 185 179 174 177 182 191 195 197 207 212 225 221 201 199 203 203 199 198 198 193 183 174 166 160 156 160 161 159 159 156 152 152 154 156 159 160 162 164 168 171 172 176 179 180 180 181
211 214 206 196 199 201 203 201 196 192 187 195 203 206 214 218 224 227 215 202 202 205 202 201 202 200 192 181 174 170 164 165 167 165 165 161 156 156 156 159 161 162 164 166 168 170 171 173 175 176 176 175
213 211 212 209 209 211 217 219 216 212 205 202 211 215 218 223 224 228 226 210 202 204 204 202 203 204 198 189 182 179 173 171 171 170 170 166 161 160 160 163 165 165 166 168 169 170 173 174 175 176 176 177
214 209 214 215 213 215 221 227 230 226 219 214 219 224 224 227 227 226 230 221 207 202 203 204 204 205 203 197 190 185 181 177 175 175 176 171 166 166 166 167 168 170 171 172 173 173 176 178 179 181 183 184
215 211 215 218 217 217 219 229 240 235 227 224 227 233 230 229 230 227 227 227 216 205 203 204 204 206 207 204 198 192 187 183 180 179 180 176 172 171 170 172 175 175 176 178 177 178 181 184 187 189 190 190
219 216 218 221 225 225 220 227 239 234 231 234 235 241 239 233 232 230 226 227 222 212 206 204 204 207 209 209 205 200 193 189 185 184 184 180 177 176 176 177 180 180 181 184 185 185 187 190 193 194 194 193
222 218 219 223 227 231 227 230 236 230 230 237 238 244 247 239 234 231 227 226 225 220 212 207 206 206 208 210 210 206 199 194 190 189 189 185 182 182 182 183 186 187 187 189 192 193 193 195 197 198 198 198
225 220 220 225 224 227 230 233 235 234 236 240 240 243 249 246 239 233 230 226 226 225 218 213 210 207 207 210 212 211 207 201 196 194 193 190 189 188 188 189 191 193 194 194 197 198 199 200 201 203 203 204
226 223 222 227 226 222 226 234 236 239 242 240 241 244 248 250 243 236 232 228 226 226 223 218 214 210 207 208 212 214 212 208 202 198 196 194 194 195 195 194 196 199 200 200 201 202 204 204 205 207 208 209
225 225 225 229 231 226 223 226 231 236 239 240 241 243 248 252 246 239 235 230 227 226 226 224 219 213 209 209 213 214 214 213 208 203 200 198 197 199 201 201 201 202 204 204 204 206 207 208 209 210 211 213
223 225 226 229 233 233 228 225 227 231 233 240 242 241 247 253 250 242 237 233 230 227 227 227 224 218 212 211 212 213 215 215 213 208 203 202 202 202 203 206 207 207 209 209 208 208 210 211 213 214 215 217
224 224 227 230 231 234 233 228 231 230 228 237 242 239 244 251 253 247 240 236 233 230 229 229 229 224 217 214 212 213 215 216 215 212 207 205 206 206 206 207 210 212 213 213 212 212 213 215 217 218 219 220
226 225 227 230 231 234 234 232 233 230 228 240 246 242 242 246 253 253 245 239 237 235 232 231 231 228 224 220 216 214 215 216 216 215 212 209 208 209 210 209 211 212 214 216 216 216 217 219 221 223 223 223
229 229 230 232 233 235 236 236 235 232 233 242 249 245 239 241 250 254 250 244 239 238 235 233 231 229 228 225 221 218 217 217 218 217 216 214 211 211 213 215 213 212 213 216 217 217 219 223 225 226 227 227
233 234 235 237 238 238 238 239 240 238 237 241 249 248 241 241 247 250 250 247 241 239 238 235 232 231 230 228 226 222 219 218 217 218 218 217 215 213 214 218 218 215 213 214 217 219 220 225 230 233 232 230
237 235 236 237 239 240 240 240 242 241 240 240 247 248 243 242 245 245 247 248 245 242 240 238 235 233 232 230 228 225 223 220 218 217 218 219 218 217 217 219 220 218 216 215 215 215 218 224 228 236 238 235
240 238 237 237 238 239 240 241 243 243 242 242 247 248 245 245 245 245 246 248 247 244 243 241 238 236 234 232 231 229 227 225 222 220 220 219 219 220 220 221 221 220 219 218 214 209 210 215 218 231 242 240
242 241 241 241 240 239 238 239 241 242 242 243 246 247 246 246 247 248 248 246 245 244 243 242 240 239 237 236 233 232 231 229 227 225 225 223 222 222 223 225 225 223 223 222 220 214 208 209 214 224 234 236
243 244 246 246 245 244 242 241 241 244 245 246 248 249 249 249 248 250 250 249 245 244 245 243 242 241 240 240 238 235 234 233 231 228 227 225 225 226 225 227 228 227 227 227 227 224 221 221 221 221 225 225
249 249 251 253 252 249 248 248 247 249 250 250 251 251 252 252 251 251 252 250 248 246 247 246 244 243 242 242 241 239 237 237 235 232 230 228 227 228 227 228 230 230 229 229 231 230 229 232 231 229 229 223
Height
1520 1521 1522 1522 1524 1525 1525 1526 1527 1528 1528 1529 1530 1530 1531 1531 1531 1532 1533 1534 1534 1534 1534 1534 1533 1534 1534 1534 1534 1535 1536 1536 1537 1538 1538 1537 1537 1537 1537 1536 1536 1536 1537 1538 1539 1541 1542 1543 1544 1545 1547 1549
1520 1520 1521 1522 1523 1524 1525 1525 1526 1527 1528 1528 1529 1530 1530 1531 1531 1532 1533 1535 1534 1534 1534 1534 1534 1534 1535 1534 1535 1536 1537 1538 1538 1538 1538 1538 1537 1537 1536 1536 1536 1536 1537 1539 1540 1541 1543 1544 1545 1546 1548 1550
1519 1520 1520 1522 1523 1524 1525 1525 1525 1526 1527 1528 1529 1530 1530 1531 1531 1532 1533 1535 1535 1534 1534 1534 1534 1535 1535 1535 1535 1536 1537 1538 1539 1538 1538 1538 1537 1536 1536 1536 1536 1537 1538 1540 1541 1542 1543 1545 1546 1547 1548 1550
1518 1519 1520 1522 1523 1524 1525 1525 1525 1526 1527 1528 1529 1530 1530 1531 1531 1532 1533 1534 1535 1535 1535 1535 1535 1535 1536 1536 1535 1537 1538 1539 1539 1538 1538 1537 1537 1536 1536 1536 1536 1537 1539 1540 1542 1543 1544 1546 1547 1548 1549 1550
1517 1518 1520 1521 1523 1524 1525 1525 1525 1526 1527 1528 1529 1530 1530 1531 1531 1532 1533 1534 1534 1534 1535 1535 1535 1536 1536 1536 1536 1537 1538 1539 1538 1538 1538 1537 1536 1536 1536 1536 1537 1538 1539 1541 1542 1544 1545 1546 1547 1549 1549 1550
1516 1518 1520 1521 1523 1524 1525 1525 1525 1526 1527 1528 1529 1529 1530 1531 1531 1532 1533 1534 1534 1534 1535 1535 1535 1536 1536 1536 1536 1537 1538 1538 1538 1537 1537 1536 1536 1536 1536 1537 1538 1539 1541 1542 1543 1545 1546 1547 1548 1549 1550 1550
1516 1518 1520 1521 1523 1524 1524 1525 1525 1525 1526 1527 1528 1529 1530 1531 1531 1532 1533 1533 1534 1534 1535 1535 1535 1535 1536 1536 1536 1536 1537 1537 1536 1536 1536 1536 1536 1537 1537 1538 1539 1540 1541 1543 1544 1545 1546 1547 1548 1549 1550 1550
1515 1518 1520 1521 1523 1523 1524 1524 1524 1525 1526 1527 1528 1529 1530 1530 1531 1532 1532 1533 1534 1534 1534 1535 1535 1535 1535 1535 1535 1536 1536 1536 1535 1536 1536 1536 1537 1537 1538 1539 1540 1541 1542 1543 1544 1545 1546 1547 1548 1549 1550 1551
1515 1517 1519 1521 1522 1522 1523 1523 1524 1524 1525 1526 1527 1528 1529 1530 1531 1531 1532 1533 1534 1534 1534 1535 1535 1535 1535 1535 1535 1536 1536 1535 1536 1536 1536 1536 1537 1537 1538 1539 1540 1541 1542 1543 1544 1545 1546 1547 1548 1549 1550 1550
1514 1516 1519 1521 1521 1522 1522 1523 1523 1524 1525 1526 1527 1528 1528 1529 1530 1531 1532 1532 1533 1534 1534 1535 1535 1535 1535 1536 1535 1536 1536 1536 1536 1537 1537 1537 1537 1538 1538 1539 1540 1541 1542 1543 1544 1545 1546 1547 1548 1549 1549 1550
1513 1515 1518 1520 1521 1521 1522 1522 1523 1523 1524 1525 1526 1527 1528 1529 1530 1530 1531 1532 1533 1533 1534 1534 1535 1535 1535 1536 1536 1536 1536 1536 1536 1537 1538 1538 1538 1538 1539 1540 1541 1542 1542 1543 1544 1545 1546 1547 1547 1548 1549 1550
1512 1514 1517 1519 1520 1520 1521 1521 1522 1522 1523 1524 1525 1526 1527 1528 1529 1530 1530 1531 1532 1533 1533 1534 1534 1535 1535 1535 1536 1536 1536 1536 1537 1537 1538 1538 1538 1539 1539 1540 1541 1542 1543 1543 1544 1545 1546 1546 1547 1548 1548 1549
1511 1513 1516 1518 1519 1519 1520 1521 1521 1522 1522 1523 1524 1525 1526 1527 1528 1529 1530 1530 1531 1532 1533 1533 1534 1535 1535 1535 1535 1536 1536 1536 1537 1537 1538 1538 1538 1539 1540 1540 1541 1542 1542 1543 1544 1545 1545 1546 1547 1547 1548 1549
1510 1512 1514 1516 1518 1519 1519 1520 1521 1521 1522 1522 1523 1524 1526 1527 1527 1528 1529 1530 1530 1531 1532 1533 1533 1534 1535 1535 1535 1536 1536 1536 1537 1537 1538 1538 1538 1539 1539 1540 1541 1542 1542 1543 1544 1544 1545 1546 1546 1547 1548 1548
1509 1511 1513 1515 1516 1517 1518 1519 1520 1521 1521 1521 1522 1523 1524 1526 1527 1527 1528 1529 1529 1530 1531 1532 1533 1533 1534 1535 1535 1535 1535 1536 1536 1537 1537 1537 1538 1538 1539 1540 1541 1541 1542 1543 1543 1544 1545 1546 1546 1547 1547 1548
1508 1510 1512 1514 1515 1516 1517 1518 1519 1520 1520 1521 1521 1522 1523 1525 1526 1526 1527 1528 1528 1529 1530 1531 1532 1533 1533 1534 1534 1535 1535 1535 1536 1536 1537 1537 1537 1538 1539 1539 1540 1541 1542 1543 1543 1544 1545 1545 1546 1547 1547 1547
1507 1509 1511 1512 1513 1514 1515 1517 1518 1518 1519 1520 1520 1521 1522 1523 1524 1525 1526 1527 1527 1528 1529 1530 1530 1531 1532 1533 1534 1534 1534 1535 1535 1536 1536 1536 1537 1537 1538 1539 1540 1540 1541 1542 1543 1544 1544 1545 1546 1546 1546 1546
1505 1508 1509 1510 1512 1513 1514 1515 1516 1517 1518 1519 1520 1520 1521 1522 1523 1524 1525 1525 1526 1527 1527 1528 1529 1530 1531 1532 1533 1534 1534 1534 1534 1535 1535 1536 1536 1537 1537 1538 1539 1540 1540 1541 1542 1543 1544 1544 1545 1545 1545 1546
1504 1506 1507 1509 1510 1511 1513 1514 1515 1515 1516 1518 1519 1519 1520 1521 1522 1523 1523 1524 1525 1526 1526 1527 1527 1528 1529 1530 1532 1533 1533 1533 1533 1534 1535 1535 1536 1536 1537 1537 1538 1539 1540 1540 1541 1542 1543 1543 1544 1544 1544 1545
1501 1504 1505 1507 1508 1509 1511 1512 1513 1514 1515 1516 1517 1518 1519 1520 1520 1521 1522 1523 1523 1524 1525 1526 1526 1527 1528 1529 1530 1531 1532 1533 1533 1533 1534 1534 1535 1536 1536 1537 1537 1538 1539 1539 1540 1541 1541 1542 1543 1543 1543 1544
1499 1501 1503 1504 1505 1507 1508 1510 1511 1513 1514 1515 1516 1517 1518 1518 1519 1520 1520 1521 1522 1523 1523 1524 1525 1525 1526 1527 1528 1530 1531 1532 1532 1532 1533 1533 1534 1535 1536 1536 1537 1537 1538 1538 1539 1540 1540 1541 1541 1542 1542 1542
1497 1499 1501 1502 1503 1505 1506 1507 1509 1510 1512 1513 1514 1515 1516 1517 1517 1518 1519 1520 1520 1521 1522 1522 1523 1524 1525 1525 1526 1528 1529 1530 1531 1531 1532 1532 1533 1534 1535 1536 1536 1537 1537 1538 1538 1539 1539 1540 1540 1540 1541 1541
1496 1497 1498 1500 1501 1502 1503 1505 1506 1508 1509 1511 1512 1513 1514 1515 1516 1517 1517 1518 1518 1519 1520 1520 1521 1522 1523 1524 1524 1526 1527 1528 1529 1530 1530 1531 1532 1533 1534 1534 1535 1536 1536 1537 1537 1538 1538 1539 1539 1539 1539 1539
1493 1494 1496 1497 1498 1499 1501 1502 1504 1506 1507 1509 1510 1511 1512 1513 1514 1515 1516 1516 1517 1517 1518 1519 1520 1520 1521 1522 1523 1523 1524 1525 1527 1528 1529 1529 1530 1531 1532 1533 1533 1534 1535 1536 1536 1537 1537 1537 1537 1537 1538 1538
1490 1491 1492 1494 1495 1496 1498 1500 1502 1503 1505 1506 1507 1509 1510 1510 1511 1513 1514 1514 1515 1515 1516 1517 1517 1518 1519 1520 1521 1521 1522 1524 1525 1526 1527 1528 1529 1530 1531 1531 1532 1533 1534 1534 1535 1535 1535 1535 1536 1536 1536 1536
1487 1488 1489 1491 1492 1494 1496 1498 1499 1500 1502 1503 1505 1506 1507 1508 1509 1510 1511 1512 1513 1513 1514 1514 1515 1516 1517 1518 1519 1519 1520 1521 1522 1523 1524 1525 1526 1527 1528 1529 1530 1531 1532 1532 1533 1533 1534 1534 1534 1534 1534 1534
1485 1486 1487 1489 1490 1492 1493 1495 1496 1498 1499 1501 1502 1503 1504 1505 1506 1507 1508 1509 1510 1511 1511 1512 1513 1514 1515 1515 1516 1517 1518 1518 1519 1520 1521 1522 1524 1525 1526 1526 1527 1528 1530 1530 1531 1533 1533 1533 1533 1532 1531 1531
1483 1484 1485 1487 1488 1489 1490 1492 1494 1495 1497 1498 1499 1500 1501 1502 1503 1504 1505 1506 1507 1508 1509 1510 1511 1512 1512 1513 1514 1515 1515 1516 1516 1517 1518 1519 1521 1521 1522 1523 1524 1526 1527 1528 1529 1530 1531 1531 1531 1530 1528 1528
1481 1483 1484 1485 1485 1486 1488 1489 1491 1492 1493 1495 1496 1497 1498 1499 1500 1501 1502 1503 1504 1505 1506 1507 1508 1509 1510 1511 1511 1512 1512 1513 1514 1515 1515 1517 1517 1518 1519 1520 1521 1523 1524 1525 1525 1526 1527 1527 1528 1527 1526 1526
1479 1480 1480 1481 1482 1483 1485 1486 1487 1488 1489 1491 1493 1494 1495 1496 1498 1498 1499 1500 1501 1502 1503 1504 1505 1506 1507 1508 1508 1509 1509 1510 1511 1512 1512 1513 1514 1515 1517 1518 1518 1519 1520 1522 1522 1523 1523 1523 1524 1524 1524 1525
1476 1476 1477 1478 1478 1480 1482 1482 1484 1486 1487 1489 1490 1492 1493 1494 1495 1495 1496 1497 1498 1499 1500 1501 1502 1503 1504 1505 1505 1506 1506 1507 1508 1508 1509 1510 1511 1512 1514 1515 1514 1515 1517 1518 1519 1520 1520 1521 1521 1522 1522 1523